Stations météo

réclame
Mon MeteoGroup
Gunnarn A, Suède (2126): Température de l'air & dewpoint: 11.07.2018 13:00:00 - 17.07.2018 13:00:00 (CEST)Gunnarn A, Suède (2126): Vitesse du vent & gusts: 11.07.2018 13:00:00 - 17.07.2018 13:00:00 (CEST)Gunnarn A, Suède (2126): Direction du vent: 11.07.2018 13:00:00 - 17.07.2018 13:00:00 (CEST)Gunnarn A, Suède (2126): reduced air pressure: 11.07.2018 13:00:00 - 17.07.2018 13:00:00 (CEST)Gunnarn A, Suède (2126): visibility: 11.07.2018 13:00:00 - 17.07.2018 13:00:00 (CEST)Gunnarn A, Suède (2126): Quantités de précipitations: 11.07.2018 13:00:00 - 17.07.2018 13:00:00 (CEST)
Date & Time tt [°C] td [°C] ff [km/h] ff [knt] fx [km/h] fx [knt] dd ppp [hPa] vv [km] rr [mm]
17.07.2018 13:00:00 30,1 10,6 6 3 11 6 SSW 1016,1 30 0,0
17.07.2018 12:00:00 29,0 10,6 6 3 11 6 S 1016,5 13 0,0
17.07.2018 11:00:00 28,1 11,6 4 2 10 5 WSW 1016,9 28 0,0
17.07.2018 10:00:00 26,3 12,4 5 3 10 5 SSW 1017,1 39 0,0
17.07.2018 09:00:00 24,7 13,0 4 2 10 5 SSE 1017,4 41 0,0
17.07.2018 08:00:00 21,9 15,5 3 2 5 3 S 1017,7 50 0,0
17.07.2018 07:00:00 20,6 15,2 2 1 4 2 SSE 1017,7 44 0,0
17.07.2018 06:00:00 18,9 15,8 0 0 4 2 N 1017,9 36 0,0
17.07.2018 05:00:00 15,1 13,6 0 0 6 3 N 1018,2 42 0,0
17.07.2018 04:00:00 13,2 12,9 4 2 6 3 ENE 1018,3 18 0,0
17.07.2018 03:00:00 12,9 12,3 0 0 6 3 N 1018,1 0,6 0,0
17.07.2018 02:00:00 13,9 13,6 0 0 6 3 N 1017,7 0,4 0,0
17.07.2018 01:00:00 15,1 14,0 3 1 5 3 SE 1017,4 35 0,0
17.07.2018 00:00:00 16,5 14,1 2 1 3 2 E 1016,9 50 0,0
16.07.2018 23:00:00 17,8 15,1 0 0 4 2 N 1016,4 33 0,0
16.07.2018 22:00:00 21,1 15,9 0 0 8 5 N 1015,5 35 0,0
16.07.2018 21:00:00 23,8 16,3 3 2 11 6 SE 1015,0 50 0,0
16.07.2018 20:00:00 27,6 12,0 4 2 11 6 ESE 1014,5 45 0,0
16.07.2018 19:00:00 25,1 13,9 6 3 23 13 E 1014,6 30 0,0
16.07.2018 18:00:00 28,1 11,6 5 3 23 13 N 1014,2 37 0,0
16.07.2018 17:00:00 28,5 10,7 3 2 16 9 W 1014,2 50 0,0
16.07.2018 16:00:00 28,5 11,6 6 3 16 9 SE 1014,5 44 0,0
16.07.2018 15:00:00 27,7 10,8 5 3 15 8 SSW 1014,9 50 0,0
16.07.2018 14:00:00 25,9 11,3 6 3 21 12 NNE 1015,5 47 0,0
16.07.2018 13:00:00 25,4 11,2 6 3 21 12 N 1015,9 42 0,0
16.07.2018 12:00:00 24,0 12,0 7 4 17 9 NNW 1016,4 50 0,0
16.07.2018 11:00:00 22,7 11,4 9 5 14 7 ENE 1016,7 44 0,0
16.07.2018 10:00:00 20,8 11,4 6 3 12 7 N 1017,1 41 0,0
16.07.2018 09:00:00 19,3 11,1 8 4 12 7 N 1017,6 47 0,0
16.07.2018 08:00:00 18,7 11,0 6 4 12 7 NW 1017,8 50 0,0
16.07.2018 07:00:00 17,0 12,5 5 3 14 8 NW 1018,0 49 0,0
16.07.2018 06:00:00 14,7 12,2 9 5 14 8 NW 1018,4 50 0,0
16.07.2018 05:00:00 11,4 10,9 6 3 11 6 WNW 1018,6 50 0,0
16.07.2018 04:00:00 9,2 8,9 3 2 14 7 WSW 1018,7 3,7 0,0
16.07.2018 03:00:00 8,6 8,2 4 2 14 7 WSW 1018,6 3,0 0,0
16.07.2018 02:00:00 9,5 9,2 4 2 6 3 W 1018,2 0,4 0,0
16.07.2018 01:00:00 10,9 10,3 2 1 8 4 S 1017,7 23 0,0
16.07.2018 00:00:00 12,3 10,9 0 0 9 5 N 1017,2 48 0,0
15.07.2018 23:00:00 14,6 11,6 5 3 9 5 NNW 1016,5 50 0,0
15.07.2018 22:00:00 17,4 10,8 5 3 20 11 WNW 1015,5 50 0,0
15.07.2018 21:00:00 20,0 10,7 6 4 24 13 NW 1014,7 50 0,0
15.07.2018 20:00:00 21,7 9,9 9 5 26 14 NNW 1014,2 50 0,0
15.07.2018 19:00:00 21,4 9,6 15 8 26 14 NW 1014,0 50 0,0
15.07.2018 18:00:00 23,1 8,4 15 8 26 14 W 1013,4 48 0,0
15.07.2018 17:00:00 24,1 7,7 13 7 22 12 W 1013,1 50 0,0
15.07.2018 16:00:00 22,8 7,7 11 6 25 13 WNW 1013,2 50 0,0
15.07.2018 15:00:00 23,7 7,3 11 6 25 13 WNW 1012,9 45 0,0
15.07.2018 14:00:00 23,3 7,8 14 7 22 12 NW 1012,7 50 0,0
15.07.2018 13:00:00 22,8 6,1 13 7 22 12 WNW 1012,6 48 0,0
15.07.2018 12:00:00 22,6 5,1 10 5 24 13 W 1012,6 50 0,0
15.07.2018 11:00:00 21,4 6,1 15 8 24 13 W 1012,7 47 0,0
15.07.2018 10:00:00 20,5 8,8 9 5 18 10 WNW 1012,5 50 0,0
15.07.2018 09:00:00 19,2 10,5 10 5 18 10 WNW 1012,3 50 0,0
15.07.2018 08:00:00 18,8 12,3 10 5 14 8 WNW 1012,1 46 0,0
15.07.2018 07:00:00 16,9 13,0 5 3 17 9 NNW 1011,8 46 0,0
15.07.2018 06:00:00 15,4 13,2 10 5 17 9 WNW 1012,2 47 0,0
15.07.2018 05:00:00 15,6 13,1 6 4 23 12 WNW 1011,8 50 0,0
15.07.2018 04:00:00 15,1 13,1 9 5 23 12 WNW 1011,5 34 0,0
15.07.2018 03:00:00 11,5 11,0 2 1 5 3 SSW 1011,9 35 0,0
15.07.2018 02:00:00 11,6 11,0 2 1 5 3 S 1011,9 32 0,0
15.07.2018 01:00:00 12,2 10,3 0 0 4 2 N 1011,5 50 0,0
15.07.2018 00:00:00 13,6 10,8 0 0 8 4 N 1011,3 36 0,0
14.07.2018 23:00:00 15,8 10,8 0 0 10 6 N 1010,8 50 0,0
14.07.2018 22:00:00 20,2 9,7 6 3 19 11 W 1010,1 50 0,0
14.07.2018 21:00:00 22,7 9,8 6 3 19 11 W 1009,6 49 0,0
14.07.2018 20:00:00 24,8 8,3 9 5 23 12 W 1009,2 50 0,0
14.07.2018 19:00:00 23,9 8,3 12 7 23 12 W 1009,2 50 0,0
14.07.2018 18:00:00 26,6 7,6 6 4 22 12 WSW 1009,0 49 0,0
14.07.2018 17:00:00 25,5 8,0 10 5 23 12 WNW 1009,4 48 0,0
14.07.2018 16:00:00 23,4 8,7 13 7 23 12 WNW 1009,8 48 0,0
14.07.2018 15:00:00 24,9 7,1 9 5 22 12 NNW 1009,8 47 0,0
14.07.2018 14:00:00 25,1 7,7 11 6 22 12 W 1010,2 48 0,0
14.07.2018 13:00:00 23,9 9,1 10 5 22 12 NW 1010,5 50 0,0
14.07.2018 12:00:00 23,1 9,5 12 6 19 11 NW 1011,0 36 0,0
14.07.2018 11:00:00 22,1 9,9 13 7 18 10 WNW 1011,6 49 0,0
14.07.2018 10:00:00 20,7 10,2 10 5 15 8 WNW 1012,0 50 0,0
14.07.2018 09:00:00 19,1 12,4 8 5 16 9 NNW 1012,4 49 0,0
14.07.2018 08:00:00 17,5 12,4 8 4 19 10 NW 1012,8 46 0,0
14.07.2018 07:00:00 15,8 12,2 11 6 19 10 WNW 1012,9 49 0,0
14.07.2018 06:00:00 13,9 12,8 7 4 13 7 WNW 1013,3 40 0,0
14.07.2018 05:00:00 11,9 11,7 4 2 12 7 NNE 1013,6 7 0,0
14.07.2018 04:00:00 11,5 11,3 8 4 12 7 WNW 1013,8 16 0,0
14.07.2018 03:00:00 9,5 9,4 6 3 9 5 WNW 1014,1 0,2 0,0
14.07.2018 02:00:00 9,9 9,6 0 0 6 3 N 1014,1 0,7 0,0
14.07.2018 01:00:00 11,4 11,1 0 0 10 6 N 1014,0 11 0,0
14.07.2018 00:00:00 11,4 10,6 3 2 10 6 SSW 1014,1 10 0,0
13.07.2018 23:00:00 13,8 12,7 0 0 14 8 N 1013,6 48 0,0
13.07.2018 22:00:00 16,5 12,7 5 3 14 8 WNW 1013,1 50 0,0
13.07.2018 21:00:00 19,9 14,0 6 3 10 6 W 1012,6 48 0,0
13.07.2018 20:00:00 19,3 13,7 5 3 18 10 W 1012,8 41 0,0
13.07.2018 19:00:00 17,2 14,3 3 2 30 16 W 1013,4 32 0,2
13.07.2018 18:00:00 16,8 13,3 12 7 30 16 WNW 1013,8 24 0,0
13.07.2018 17:00:00 19,6 14,4 7 4 19 10 NW 1012,9 50 0,0
13.07.2018 16:00:00 19,3 12,8 8 4 20 11 W 1012,9 50 0,0
13.07.2018 15:00:00 21,2 9,8 11 6 20 11 S 1012,6 38 0,0
13.07.2018 14:00:00 22,5 10,3 - - 22 12 - 1012,7 - 0,0
13.07.2018 13:00:00 21,3 11,0 6 3 22 12 SSE 1013,1 34 0,0
13.07.2018 12:00:00 21,3 12,4 8 5 16 9 ESE 1013,5 31 0,0
13.07.2018 11:00:00 21,6 11,9 4 2 10 6 NE 1013,4 44 0,0
13.07.2018 10:00:00 20,2 11,9 3 2 9 5 N 1013,9 50 0,0
13.07.2018 09:00:00 20,4 10,5 3 2 13 7 E 1013,9 44 0,0
13.07.2018 08:00:00 19,3 10,8 4 2 13 7 NW 1014,0 50 0,0
13.07.2018 07:00:00 18,0 11,6 7 4 12 6 NW 1014,1 46 0,0
13.07.2018 06:00:00 16,8 12,5 3 1 5 3 E 1014,4 45 0,0
13.07.2018 05:00:00 12,9 11,3 3 2 5 3 NE 1015,0 35 0,0
13.07.2018 04:00:00 11,2 9,6 2 1 7 4 SSE 1015,2 50 0,0
13.07.2018 03:00:00 11,4 9,3 2 1 7 4 E 1015,1 50 0,0
13.07.2018 02:00:00 11,6 10,2 0 0 10 5 N 1015,1 50 0,0
13.07.2018 01:00:00 13,0 9,3 0 0 18 10 N 1014,9 50 0,0
13.07.2018 00:00:00 17,1 10,0 9 5 21 12 S 1014,4 50 0,0
12.07.2018 23:00:00 17,8 9,9 4 2 21 12 E 1014,3 50 0,0
12.07.2018 22:00:00 20,5 8,8 8 4 19 10 SSW 1013,6 50 0,0
12.07.2018 21:00:00 22,6 6,4 4 2 16 9 SE 1013,1 50 0,0
12.07.2018 20:00:00 24,3 5,6 7 4 16 9 S 1012,8 50 0,0
12.07.2018 19:00:00 25,2 5,4 7 4 17 9 S 1012,8 50 0,0
12.07.2018 18:00:00 25,6 5,2 8 4 22 12 S 1013,0 45 0,0
12.07.2018 17:00:00 26,4 5,9 6 3 22 12 S 1013,2 49 0,0
12.07.2018 16:00:00 25,8 6,4 8 5 23 12 SE 1013,6 40 0,0
12.07.2018 15:00:00 25,8 6,9 11 6 23 12 SSE 1014,1 43 0,0
12.07.2018 14:00:00 26,0 7,6 10 5 28 15 SSE 1014,4 39 0,0
12.07.2018 13:00:00 23,2 7,7 4 2 28 15 SE 1015,2 50 0,0
12.07.2018 12:00:00 24,6 7,3 5 3 14 8 E 1015,2 41 0,0
12.07.2018 11:00:00 23,1 7,6 3 2 13 7 NW 1015,8 38 0,0
12.07.2018 10:00:00 22,0 8,5 8 4 13 7 ENE 1016,3 46 0,0
12.07.2018 09:00:00 21,1 9,7 3 1 9 5 SE 1016,8 43 0,0
12.07.2018 08:00:00 18,3 10,1 4 2 9 5 S 1017,4 40 0,0
12.07.2018 07:00:00 17,1 9,5 0 0 7 4 N 1017,9 44 0,0
12.07.2018 06:00:00 15,4 10,8 0 0 4 2 N 1018,2 47 0,0
12.07.2018 05:00:00 11,2 8,8 3 2 6 3 ENE 1018,9 40 0,0
12.07.2018 04:00:00 8,2 7,6 3 2 6 3 E 1019,5 18 0,0
12.07.2018 03:00:00 8,8 8,3 0 0 5 3 N 1019,6 23 0,0
12.07.2018 02:00:00 9,7 8,3 3 2 5 3 E 1019,7 50 0,0
12.07.2018 01:00:00 11,6 7,9 0 0 4 2 N 1019,6 50 0,0
12.07.2018 00:00:00 13,6 8,6 2 1 8 4 ESE 1019,7 26 0,0
11.07.2018 23:00:00 15,4 10,0 2 1 16 8 SSW 1019,5 50 0,0
11.07.2018 22:00:00 21,0 6,1 4 2 19 11 ESE 1018,7 50 0,0
11.07.2018 21:00:00 23,7 5,6 7 4 19 11 ESE 1018,4 50 0,0
11.07.2018 20:00:00 25,1 5,3 8 5 22 12 E 1017,9 50 0,0
11.07.2018 19:00:00 25,9 4,9 7 4 22 12 ESE 1017,9 50 0,0
11.07.2018 18:00:00 26,3 4,7 10 5 23 13 E 1018,1 36 0,0
11.07.2018 17:00:00 26,6 5,5 10 5 26 14 SE 1018,2 49 0,0
11.07.2018 16:00:00 26,7 5,0 9 5 26 14 SSE 1018,6 46 0,0
11.07.2018 15:00:00 26,3 6,8 10 5 26 14 ESE 1018,9 46 0,0
11.07.2018 14:00:00 26,4 7,9 8 4 19 10 ENE 1019,4 45 0,0
11.07.2018 13:00:00 25,9 10,1 7 4 19 10 SSE 1019,8 44 0,0

tt = Température de l'air
td = dewpoint
ff = Vitesse du vent
fx = gusts
dd = Direction du vent
ppp = reduced air pressure
vv = visibility
rr = Quantités de précipitations

stations d'obs. à proximité